This is the latest recevied weather packets stored in our database for station/object KK4MOR. If no packets are shown the sender has not sent any weather packets the latest 10 day(s).
| Time | Temp. | Humidity | Pressure | Rain* | Wind** | Luminosity | Snow |
|---|---|---|---|---|---|---|---|
| 1777585543 | 16.11° C | 50% | 1012.3 hPa | 0 mm | - | - | - |
| 1777584644 | 16.11° C | 49% | 1012.4 hPa | 0 mm | - | - | - |
| 1777583742 | 16.67° C | 51% | 1012.5 hPa | 0 mm | - | - | - |
| 1777582851 | 16.67° C | 51% | 1012.5 hPa | 0 mm | - | - | - |
| 1777581946 | 16.11° C | 51% | 1012.6 hPa | 0 mm | - | - | - |
| 1777581043 | 16.67° C | 50% | 1012.6 hPa | 0 mm | - | - | - |
| 1777580141 | 16.67° C | 52% | 1012.6 hPa | 0 mm | - | - | - |
| 1777579254 | 16.67° C | 52% | 1012.8 hPa | 0 mm | - | - | - |
| 1777578340 | 16.67° C | 48% | 1012.8 hPa | 0 mm | - | - | - |
| 1777577442 | 16.67° C | 48% | 1013 hPa | 0 mm | - | - | - |
| 1777576537 | 16.67° C | 49% | 1013.1 hPa | 0 mm | - | - | - |
| 1777575640 | 16.67° C | 52% | 1013.1 hPa | 0 mm | - | - | - |
| 1777574735 | 16.67° C | 46% | 1013.1 hPa | 0 mm | - | - | - |
| 1777573835 | 16.67° C | 46% | 1013.1 hPa | 0 mm | - | - | - |
| 1777572935 | 16.67° C | 47% | 1013.2 hPa | 0 mm | - | - | - |
| 1777572036 | 16.67° C | 47% | 1013.4 hPa | 0 mm | - | - | - |
| 1777571134 | 16.67° C | 46% | 1013.5 hPa | 0 mm | - | - | - |
| 1777570229 | 15.56° C | 49% | 1013.6 hPa | 0 mm | - | - | - |
| 1777569332 | 15.56° C | 48% | 1013.3 hPa | 0 mm | - | - | - |
| 1777568425 | 15.56° C | 49% | 1013.4 hPa | 0 mm | - | - | - |
| 1777567525 | 15° C | 51% | 1013.5 hPa | 0 mm | - | - | - |
| 1777566622 | 15° C | 51% | 1013.4 hPa | 0 mm | - | - | - |
| 1777565741 | 15° C | 50% | 1013.5 hPa | 0 mm | - | - | - |
| 1777564821 | 15° C | 53% | 1013.7 hPa | 0 mm | - | - | - |
| 1777563918 | 14.44° C | 52% | 1013.9 hPa | 0 mm | - | - | - |
* Rain latest hour (hover to see other rain measurements)
** Current wind speed in m/s (hover to see current wind gust speed)